| time (UTC) | temp F | wind direction | speed knots | gust knots | rain 1hr in | rain 24hr in | rain mn in | humidity % | barometer mb |
| 20260509105029 | 43 | 7 | 0.0 | 1.7 | 0.00 | 0.00 | 0.00 | 94 | 1011.5 |
| 20260509104529 | 43 | 7 | 0.0 | 1.7 | 0.00 | 0.00 | 0.00 | 95 | 1011.3 |
| 20260509104028 | 43 | 99 | 0.0 | 0.9 | 0.00 | 0.00 | 0.00 | 95 | 1011.4 |
| 20260509103528 | 43 | 99 | 0.0 | 0.0 | 0.00 | 0.00 | 0.00 | 95 | 1011.3 |
| 20260509103028 | 43 | 99 | 0.0 | 0.9 | 0.00 | 0.00 | 0.00 | 95 | 1011.3 |
| 20260509102528 | 43 | 99 | 0.0 | 0.9 | 0.00 | 0.00 | 0.00 | 95 | 1011.2 |
| 20260509102028 | 43 | 99 | 0.0 | 0.9 | 0.00 | 0.00 | 0.00 | 95 | 1011.3 |
| 20260509101535 | 43 | 99 | 0.0 | 0.9 | 0.00 | 0.00 | 0.00 | 94 | 1011.2 |
| 20260509101028 | 43 | 99 | 0.0 | 0.9 | 0.00 | 0.00 | 0.00 | 94 | 1011.2 |
| 20260509100526 | 43 | 99 | 0.0 | 0.9 | 0.00 | 0.00 | 0.00 | 94 | 1011.1 |
| 20260509100026 | 43 | 98 | 0.0 | 0.9 | 0.00 | 0.00 | 0.00 | 93 | 1011.1 |
| 20260509095525 | 44 | 99 | 0.0 | 0.9 | 0.00 | 0.00 | 0.00 | 93 | 1011.0 |
| 20260509095023 | 44 | 99 | 0.0 | 0.9 | 0.00 | 0.00 | 0.00 | 93 | 1011.1 |
| 20260509094530 | 45 | 99 | 0.0 | 0.9 | 0.00 | 0.00 | 0.00 | 92 | 1011.0 |
| 20260509094020 | 45 | 98 | 0.0 | 0.9 | 0.00 | 0.00 | 0.00 | 94 | 1011.0 |
| 20260509093520 | 45 | 11 | 0.0 | 0.9 | 0.00 | 0.00 | 0.00 | 93 | 1011.0 |
| 20260509093020 | 45 | 11 | 0.0 | 0.9 | 0.00 | 0.00 | 0.00 | 93 | 1011.0 |
| 20260509092518 | 46 | 11 | 0.0 | 0.9 | 0.00 | 0.00 | 0.00 | 93 | 1011.0 |
| 20260509092018 | 46 | 11 | 0.0 | 0.9 | 0.00 | 0.00 | 0.00 | 93 | 1011.1 |
| 20260509091517 | 46 | 347 | 0.9 | 0.9 | 0.00 | 0.00 | 0.00 | 92 | 1011.2 |
| 20260509091016 | 46 | 347 | 0.0 | 0.9 | 0.00 | 0.00 | 0.00 | 93 | 1011.3 |
| 20260509090518 | 46 | 347 | 0.0 | 1.7 | 0.00 | 0.00 | 0.00 | 92 | 1011.3 |
| 20260509090016 | 46 | 347 | 0.0 | 1.7 | 0.00 | 0.00 | 0.00 | 92 | 1011.3 |
| 20260509085514 | 46 | 347 | 0.9 | 1.7 | 0.00 | 0.00 | 0.00 | 92 | 1011.3 |
| 20260509085013 | 46 | 98 | 0.0 | 0.9 | 0.00 | 0.00 | 0.00 | 91 | 1011.2 |
| 20260509084512 | 47 | 98 | 0.0 | 0.9 | 0.00 | 0.00 | 0.00 | 91 | 1011.3 |
| 20260509084014 | 47 | 98 | 0.0 | 1.7 | 0.00 | 0.00 | 0.00 | 90 | 1011.4 |
| 20260509083510 | 47 | 122 | 0.0 | 1.7 | 0.00 | 0.00 | 0.00 | 91 | 1011.2 |
| 20260509083009 | 47 | 143 | 0.0 | 0.0 | 0.00 | 0.00 | 0.00 | 90 | 1011.3 |
| 20260509082514 | 48 | 158 | 0.0 | 0.9 | 0.00 | 0.00 | 0.00 | 89 | 1011.3 |
| 20260509082007 | 48 | 158 | 0.0 | 2.6 | 0.00 | 0.00 | 0.00 | 89 | 1011.4 |
| 20260509081507 | 48 | 174 | 0.0 | 2.6 | 0.00 | 0.00 | 0.00 | 89 | 1011.4 |
| 20260509081007 | 49 | 254 | 0.0 | 3.5 | 0.00 | 0.00 | 0.00 | 89 | 1011.5 |
| 20260509080506 | 49 | 126 | 0.9 | 3.5 | 0.00 | 0.00 | 0.00 | 89 | 1011.5 |
| 20260509080006 | 48 | 147 | 1.7 | 3.5 | 0.00 | 0.00 | 0.00 | 89 | 1011.5 |
| 20260509075505 | 48 | 159 | 0.9 | 3.5 | 0.00 | 0.00 | 0.00 | 89 | 1011.6 |
| 20260509075006 | 48 | 165 | 1.7 | 3.5 | 0.00 | 0.00 | 0.00 | 90 | 1011.6 |
| 20260509074503 | 48 | 143 | 0.0 | 1.7 | 0.00 | 0.00 | 0.00 | 89 | 1011.8 |
| 20260509074002 | 48 | 138 | 0.0 | 0.9 | 0.00 | 0.00 | 0.00 | 88 | 1011.8 |
| 20260509073501 | 48 | 138 | 0.0 | 0.9 | 0.00 | 0.00 | 0.00 | 88 | 1011.8 |
| 20260509073001 | 49 | 138 | 0.0 | 0.9 | 0.00 | 0.00 | 0.00 | 87 | 1011.8 |
| 20260509072600 | 49 | 138 | 0.0 | 0.9 | 0.00 | 0.00 | 0.00 | 87 | 1011.9 |
| 20260509072100 | 49 | 138 | 0.0 | 0.9 | 0.00 | 0.00 | 0.00 | 86 | 1011.9 |
| 20260509071603 | 49 | 138 | 0.0 | 0.9 | 0.00 | 0.00 | 0.00 | 86 | 1011.9 |
| 20260509071056 | 50 | 138 | 0.0 | 1.7 | 0.00 | 0.00 | 0.00 | 84 | 1012.1 |
| 20260509070556 | 50 | 138 | 0.0 | 2.6 | 0.00 | 0.00 | 0.00 | 85 | 1012.1 |
| 20260509070056 | 50 | 143 | 0.9 | 5.2 | 0.00 | 0.00 | 0.00 | 85 | 1012.1 |
| 20260509065555 | 50 | 182 | 1.7 | 5.2 | 0.00 | 0.00 | 0.00 | 85 | 1012.1 |
| 20260509065054 | 50 | 210 | 0.0 | 2.6 | 0.00 | 0.00 | 0.00 | 85 | 1012.0 |
| 20260509064558 | 50 | 152 | 0.0 | 1.7 | 0.00 | 0.00 | 0.00 | 84 | 1012.0 |
| 20260509064053 | 51 | 136 | 0.9 | 6.1 | 0.00 | 0.00 | 0.00 | 84 | 1012.1 |
| 20260509063551 | 51 | 135 | 1.7 | 6.1 | 0.00 | 0.00 | 0.00 | 84 | 1012.2 |
| 20260509063050 | 51 | 163 | 0.9 | 2.6 | 0.00 | 0.00 | 0.00 | 83 | 1012.4 |
| 20260509062552 | 51 | 145 | 0.9 | 3.5 | 0.00 | 0.00 | 0.00 | 83 | 1012.6 |
| 20260509062049 | 51 | 140 | 1.7 | 3.5 | 0.00 | 0.00 | 0.00 | 83 | 1012.6 |
| 20260509061601 | 51 | 191 | 1.7 | 5.2 | 0.00 | 0.00 | 0.00 | 83 | 1012.8 |
| 20260509061046 | 51 | 210 | 1.7 | 5.2 | 0.00 | 0.00 | 0.00 | 82 | 1012.9 |
| 20260509060546 | 52 | 136 | 0.9 | 4.3 | 0.00 | 0.00 | 0.00 | 82 | 1013.0 |
| 20260509060046 | 52 | 160 | 0.9 | 6.1 | 0.00 | 0.00 | 0.00 | 82 | 1013.1 |
| 20260509055546 | 52 | 150 | 1.7 | 6.1 | 0.00 | 0.00 | 0.00 | 82 | 1013.2 |
| 20260509055045 | 52 | 226 | 2.6 | 6.1 | 0.00 | 0.00 | 0.00 | 82 | 1013.2 |
| 20260509054601 | 52 | 163 | 2.6 | 6.1 | 0.00 | 0.00 | 0.00 | 82 | 1013.2 |
| 20260509054043 | 52 | 130 | 1.7 | 6.1 | 0.00 | 0.00 | 0.00 | 82 | 1013.3 |
| 20260509053545 | 52 | 154 | 1.7 | 6.1 | 0.00 | 0.00 | 0.00 | 82 | 1013.3 |
| 20260509053046 | 52 | 139 | 1.7 | 8.7 | 0.00 | 0.00 | 0.00 | 82 | 1013.4 |
| 20260509052542 | 52 | 216 | 1.7 | 7.0 | 0.00 | 0.00 | 0.00 | 82 | 1013.5 |
| 20260509052040 | 52 | 179 | 1.7 | 7.0 | 0.00 | 0.00 | 0.00 | 82 | 1013.6 |
| 20260509051539 | 52 | 195 | 2.6 | 8.7 | 0.00 | 0.00 | 0.00 | 82 | 1013.6 |
| 20260509051040 | 52 | 153 | 3.5 | 12.2 | 0.00 | 0.00 | 0.00 | 82 | 1013.7 |
| 20260509050540 | 52 | 159 | 3.5 | 12.2 | 0.00 | 0.00 | 0.00 | 82 | 1013.9 |
| 20260509050039 | 51 | 152 | 0.9 | 7.0 | 0.00 | 0.00 | 0.00 | 82 | 1013.9 |
| 20260509045538 | 51 | 173 | 0.9 | 5.2 | 0.00 | 0.00 | 0.00 | 82 | 1013.9 |
| 20260509045038 | 51 | 162 | 0.9 | 5.2 | 0.00 | 0.00 | 0.00 | 82 | 1013.7 |
| 20260509044536 | 51 | 153 | 0.0 | 5.2 | 0.00 | 0.00 | 0.00 | 81 | 1013.6 |
| 20260509044036 | 51 | 173 | 0.9 | 5.2 | 0.00 | 0.00 | 0.00 | 81 | 1013.7 |
| 20260509043537 | 51 | 150 | 2.6 | 6.1 | 0.00 | 0.00 | 0.00 | 81 | 1013.6 |
| 20260509043035 | 51 | 127 | 1.7 | 5.2 | 0.00 | 0.00 | 0.00 | 81 | 1013.7 |
| 20260509042534 | 51 | 141 | 0.9 | 3.5 | 0.00 | 0.00 | 0.00 | 80 | 1013.8 |
| 20260509042033 | 52 | 170 | 0.9 | 5.2 | 0.00 | 0.00 | 0.00 | 80 | 1013.9 |
| 20260509041532 | 52 | 208 | 0.9 | 5.2 | 0.00 | 0.00 | 0.00 | 80 | 1014.0 |
| 20260509041033 | 52 | 157 | 0.9 | 3.5 | 0.00 | 0.00 | 0.00 | 80 | 1013.9 |
| 20260509040530 | 52 | 132 | 0.9 | 3.5 | 0.00 | 0.00 | 0.00 | 79 | 1013.9 |
| 20260509040037 | 52 | 171 | 0.9 | 5.2 | 0.00 | 0.00 | 0.00 | 79 | 1014.0 |
| 20260509035530 | 52 | 160 | 0.9 | 5.2 | 0.00 | 0.00 | 0.00 | 79 | 1014.1 |
| 20260509035029 | 52 | 173 | 2.6 | 6.1 | 0.00 | 0.00 | 0.00 | 78 | 1014.1 |
| 20260509034530 | 52 | 172 | 1.7 | 6.1 | 0.00 | 0.00 | 0.00 | 78 | 1014.1 |
| 20260509034029 | 52 | 169 | 0.9 | 5.2 | 0.00 | 0.00 | 0.00 | 78 | 1014.2 |
| 20260509033530 | 52 | 122 | 1.7 | 6.1 | 0.00 | 0.00 | 0.00 | 78 | 1014.1 |
| 20260509033029 | 52 | 139 | 1.7 | 6.1 | 0.00 | 0.00 | 0.00 | 78 | 1014.1 |
| 20260509032528 | 52 | 74 | 0.9 | 4.3 | 0.00 | 0.00 | 0.00 | 77 | 1014.1 |
| 20260509032029 | 52 | 152 | 0.9 | 4.3 | 0.00 | 0.00 | 0.00 | 77 | 1014.1 |
| 20260509031529 | 52 | 138 | 0.9 | 6.1 | 0.00 | 0.00 | 0.00 | 77 | 1014.1 |
| 20260509031028 | 52 | 211 | 1.7 | 7.0 | 0.00 | 0.00 | 0.00 | 76 | 1014.2 |
| 20260509030528 | 52 | 145 | 1.7 | 7.8 | 0.00 | 0.00 | 0.00 | 76 | 1014.2 |
| 20260509030028 | 52 | 106 | 3.5 | 7.8 | 0.00 | 0.00 | 0.00 | 77 | 1014.2 |
| 20260509025527 | 52 | 229 | 1.7 | 4.3 | 0.00 | 0.00 | 0.00 | 76 | 1014.4 |
| 20260509025027 | 52 | 180 | 1.7 | 5.2 | 0.00 | 0.00 | 0.00 | 76 | 1014.4 |
| 20260509024526 | 52 | 140 | 0.9 | 5.2 | 0.00 | 0.00 | 0.00 | 76 | 1014.5 |
| 20260509024029 | 52 | 157 | 0.0 | 2.6 | 0.00 | 0.00 | 0.00 | 76 | 1014.5 |
| 20260509023527 | 53 | 152 | 0.0 | 5.2 | 0.00 | 0.00 | 0.00 | 75 | 1014.4 |
| 20260509023026 | 53 | 178 | 1.7 | 5.2 | 0.00 | 0.00 | 0.00 | 75 | 1014.5 |
| 20260509022530 | 53 | 157 | 1.7 | 5.2 | 0.00 | 0.00 | 0.00 | 75 | 1014.4 |
| 20260509022026 | 53 | 148 | 1.7 | 7.0 | 0.00 | 0.00 | 0.00 | 74 | 1014.4 |
| 20260509021526 | 53 | 129 | 2.6 | 7.0 | 0.00 | 0.00 | 0.00 | 74 | 1014.4 |
| 20260509021027 | 53 | 186 | 0.9 | 6.1 | 0.00 | 0.00 | 0.00 | 74 | 1014.3 |
| 20260509020526 | 53 | 173 | 1.7 | 6.1 | 0.00 | 0.00 | 0.00 | 74 | 1014.2 |
| 20260509020025 | 53 | 150 | 1.7 | 7.0 | 0.00 | 0.00 | 0.00 | 74 | 1014.2 |
| 20260509015525 | 53 | 149 | 0.9 | 7.0 | 0.00 | 0.00 | 0.00 | 73 | 1014.3 |
| 20260509015024 | 53 | 193 | 2.6 | 7.0 | 0.00 | 0.00 | 0.00 | 73 | 1014.3 |
| 20260509014535 | 53 | 122 | 2.6 | 4.3 | 0.00 | 0.00 | 0.00 | 73 | 1014.3 |
| 20260509014024 | 53 | 158 | 0.9 | 7.8 | 0.00 | 0.00 | 0.00 | 72 | 1014.4 |
| 20260509013524 | 53 | 193 | 1.7 | 7.8 | 0.00 | 0.00 | 0.00 | 72 | 1014.3 |
| 20260509013024 | 53 | 141 | 1.7 | 5.2 | 0.00 | 0.00 | 0.00 | 72 | 1014.3 |
| 20260509012523 | 53 | 172 | 1.7 | 5.2 | 0.00 | 0.00 | 0.00 | 72 | 1014.2 |
| 20260509012023 | 53 | 209 | 0.0 | 6.1 | 0.00 | 0.00 | 0.00 | 71 | 1014.3 |
| 20260509011525 | 54 | 181 | 0.9 | 7.8 | 0.00 | 0.00 | 0.00 | 71 | 1014.4 |
| 20260509011023 | 54 | 139 | 2.6 | 7.8 | 0.00 | 0.00 | 0.00 | 71 | 1014.3 |
| 20260509010522 | 54 | 127 | 0.9 | 3.5 | 0.00 | 0.00 | 0.00 | 70 | 1014.3 |
| 20260509010022 | 54 | 153 | 0.9 | 6.1 | 0.00 | 0.00 | 0.00 | 69 | 1014.2 |
| 20260509005522 | 54 | 141 | 2.6 | 6.1 | 0.00 | 0.00 | 0.00 | 69 | 1014.4 |
| 20260509005021 | 54 | 155 | 0.9 | 5.2 | 0.00 | 0.00 | 0.00 | 68 | 1014.2 |
| 20260509004520 | 54 | 174 | 1.7 | 6.1 | 0.00 | 0.00 | 0.00 | 67 | 1014.3 |
| 20260509004020 | 55 | 134 | 2.6 | 7.0 | 0.00 | 0.00 | 0.00 | 67 | 1014.0 |
| 20260509003520 | 55 | 162 | 3.5 | 7.0 | 0.00 | 0.00 | 0.00 | 66 | 1014.1 |
| 20260509003020 | 55 | 136 | 1.7 | 4.3 | 0.00 | 0.00 | 0.00 | 65 | 1014.2 |
| 20260509002519 | 55 | 236 | 1.7 | 4.3 | 0.00 | 0.00 | 0.00 | 64 | 1014.1 |
| 20260509002020 | 56 | 146 | 0.0 | 5.2 | 0.00 | 0.00 | 0.00 | 63 | 1014.0 |
| 20260509001525 | 56 | 169 | 2.6 | 5.2 | 0.00 | 0.00 | 0.00 | 62 | 1014.0 |
| 20260509001020 | 56 | 207 | 0.9 | 4.3 | 0.00 | 0.00 | 0.00 | 62 | 1014.0 |
| 20260509000520 | 57 | 177 | 0.9 | 7.8 | 0.00 | 0.00 | 0.00 | 61 | 1013.9 |
| 20260509000019 | 57 | 177 | 3.5 | 7.8 | 0.00 | 0.00 | 0.00 | 60 | 1013.9 |
| 20260508235519 | 57 | 172 | 1.7 | 7.8 | 0.00 | 0.00 | 0.00 | 59 | 1013.9 |
| 20260508235019 | 57 | 149 | 1.7 | 7.0 | 0.00 | 0.00 | 0.00 | 59 | 1013.7 |
| 20260508234518 | 57 | 146 | 1.7 | 7.8 | 0.00 | 0.00 | 0.00 | 58 | 1013.7 |
| 20260508234018 | 58 | 120 | 2.6 | 9.6 | 0.00 | 0.00 | 0.00 | 58 | 1013.9 |
| 20260508233519 | 58 | 193 | 3.5 | 9.6 | 0.00 | 0.00 | 0.00 | 57 | 1013.8 |
| 20260508233018 | 58 | 203 | 3.5 | 7.0 | 0.00 | 0.00 | 0.00 | 57 | 1013.8 |
| 20260508232517 | 58 | 173 | 0.9 | 10.4 | 0.00 | 0.00 | 0.00 | 57 | 1013.8 |
| 20260508232017 | 58 | 189 | 3.5 | 10.4 | 0.00 | 0.00 | 0.00 | 56 | 1013.8 |
| 20260508231517 | 58 | 115 | 3.5 | 7.0 | 0.00 | 0.00 | 0.00 | 55 | 1013.6 |
| 20260508231017 | 58 | 164 | 1.7 | 6.1 | 0.00 | 0.00 | 0.00 | 55 | 1013.9 |
| 20260508230517 | 59 | 189 | 2.6 | 9.6 | 0.00 | 0.00 | 0.00 | 54 | 1014.0 |
| 20260508230017 | 59 | 204 | 2.6 | 9.6 | 0.00 | 0.00 | 0.00 | 54 | 1014.0 |
| 20260508225516 | 59 | 136 | 2.6 | 9.6 | 0.00 | 0.00 | 0.00 | 53 | 1014.0 |
| 20260508225019 | 60 | 200 | 3.5 | 9.6 | 0.00 | 0.00 | 0.00 | 52 | 1014.0 |
| 20260508224515 | 60 | 159 | 1.7 | 7.8 | 0.00 | 0.00 | 0.00 | 53 | 1013.9 |
| 20260508224015 | 60 | 155 | 4.3 | 7.8 | 0.00 | 0.00 | 0.00 | 51 | 1014.0 |
| 20260508223514 | 60 | 119 | 1.7 | 7.0 | 0.00 | 0.00 | 0.00 | 52 | 1013.9 |
| 20260508223015 | 60 | 146 | 2.6 | 7.8 | 0.00 | 0.00 | 0.00 | 50 | 1013.8 |
| 20260508222514 | 60 | 155 | 3.5 | 7.0 | 0.00 | 0.00 | 0.00 | 50 | 1014.0 |
| 20260508222017 | 60 | 201 | 1.7 | 10.4 | 0.00 | 0.00 | 0.00 | 49 | 1013.9 |
| 20260508221515 | 61 | 141 | 1.7 | 6.1 | 0.00 | 0.00 | 0.00 | 48 | 1013.7 |
| 20260508221014 | 61 | 183 | 1.7 | 7.8 | 0.00 | 0.00 | 0.00 | 47 | 1013.8 |
| 20260508220514 | 60 | 158 | 3.5 | 7.8 | 0.00 | 0.00 | 0.00 | 46 | 1013.6 |
| 20260508220045 | 61 | 205 | 4.3 | 8.7 | 0.00 | 0.00 | 0.00 | 45 | 1013.5 |
| 20260508215513 | 61 | 148 | 3.5 | 8.7 | 0.00 | 0.00 | 0.00 | 43 | 1013.4 |
| 20260508215013 | 61 | 189 | 1.7 | 10.4 | 0.00 | 0.00 | 0.00 | 45 | 1013.5 |
| 20260508214514 | 61 | 207 | 3.5 | 10.4 | 0.00 | 0.00 | 0.00 | 43 | 1013.5 |
| 20260508214012 | 61 | 145 | 4.3 | 12.2 | 0.00 | 0.00 | 0.00 | 42 | 1013.5 |
| 20260508213512 | 61 | 84 | 2.6 | 12.2 | 0.00 | 0.00 | 0.00 | 42 | 1013.5 |
| 20260508213012 | 61 | 6 | 3.5 | 7.8 | 0.00 | 0.00 | 0.00 | 40 | 1013.5 |
| 20260508212512 | 61 | 206 | 2.6 | 8.7 | 0.00 | 0.00 | 0.00 | 40 | 1013.6 |
| 20260508212011 | 61 | 146 | 4.3 | 9.6 | 0.00 | 0.00 | 0.00 | 38 | 1013.7 |
| 20260508211511 | 61 | 151 | 3.5 | 7.0 | 0.00 | 0.00 | 0.00 | 37 | 1013.5 |
| 20260508211011 | 62 | 151 | 2.6 | 6.1 | 0.00 | 0.00 | 0.00 | 37 | 1013.4 |
| 20260508210511 | 61 | 146 | 1.7 | 8.7 | 0.00 | 0.00 | 0.00 | 38 | 1013.5 |
| 20260508210011 | 61 | 110 | 1.7 | 7.8 | 0.00 | 0.00 | 0.00 | 37 | 1013.5 |
| 20260508205512 | 61 | 181 | 3.5 | 10.4 | 0.00 | 0.00 | 0.00 | 36 | 1013.8 |
| 20260508205011 | 61 | 131 | 4.3 | 10.4 | 0.00 | 0.00 | 0.00 | 36 | 1013.9 |
| 20260508204510 | 62 | 167 | 1.7 | 8.7 | 0.00 | 0.00 | 0.00 | 37 | 1013.9 |
| 20260508204014 | 62 | 160 | 3.5 | 8.7 | 0.00 | 0.00 | 0.00 | 35 | 1013.9 |
| 20260508203508 | 62 | 156 | 2.6 | 9.6 | 0.00 | 0.00 | 0.00 | 35 | 1014.0 |
| 20260508203008 | 62 | 154 | 0.9 | 10.4 | 0.00 | 0.00 | 0.00 | 36 | 1014.3 |
| 20260508202508 | 62 | 149 | 1.7 | 7.8 | 0.00 | 0.00 | 0.00 | 36 | 1014.5 |
| 20260508202008 | 61 | 143 | 1.7 | 7.8 | 0.00 | 0.00 | 0.00 | 35 | 1014.5 |
| 20260508201507 | 62 | 153 | 3.5 | 12.2 | 0.00 | 0.00 | 0.00 | 34 | 1014.7 |
| 20260508201007 | 63 | 206 | 6.1 | 12.2 | 0.00 | 0.00 | 0.00 | 32 | 1014.7 |
| 20260508200507 | 63 | 186 | 5.2 | 9.6 | 0.00 | 0.00 | 0.00 | 33 | 1014.7 |
| 20260508200006 | 62 | 206 | 4.3 | 7.8 | 0.00 | 0.00 | 0.00 | 32 | 1014.7 |
| 20260508195506 | 62 | 184 | 2.6 | 8.7 | 0.00 | 0.00 | 0.00 | 33 | 1014.7 |
| 20260508195006 | 61 | 79 | 2.6 | 14.8 | 0.00 | 0.00 | 0.00 | 33 | 1014.8 |
| 20260508194506 | 62 | 129 | 6.1 | 14.8 | 0.00 | 0.00 | 0.00 | 33 | 1014.7 |
| 20260508194006 | 62 | 79 | 4.3 | 12.2 | 0.00 | 0.00 | 0.00 | 33 | 1014.7 |
| 20260508193505 | 62 | 131 | 4.3 | 7.0 | 0.00 | 0.00 | 0.00 | 34 | 1014.8 |
| 20260508193005 | 62 | 158 | 1.7 | 5.2 | 0.00 | 0.00 | 0.00 | 34 | 1014.8 |
| 20260508192505 | 63 | 127 | 3.5 | 6.1 | 0.00 | 0.00 | 0.00 | 32 | 1014.9 |
| 20260508192004 | 62 | 99 | 1.7 | 7.0 | 0.00 | 0.00 | 0.00 | 35 | 1014.9 |
| 20260508191506 | 62 | 137 | 2.6 | 9.6 | 0.00 | 0.00 | 0.00 | 33 | 1015.0 |
| 20260508191004 | 62 | 145 | 3.5 | 9.6 | 0.00 | 0.00 | 0.00 | 31 | 1015.2 |
| 20260508190504 | 62 | 143 | 3.5 | 7.8 | 0.00 | 0.00 | 0.00 | 31 | 1015.3 |
| 20260508190003 | 62 | 210 | 4.3 | 7.8 | 0.00 | 0.00 | 0.00 | 29 | 1015.4 |
| 20260508185501 | 61 | 207 | 4.3 | 13.0 | 0.00 | 0.00 | 0.00 | 28 | 1015.5 |
| 20260508185002 | 61 | 150 | 5.2 | 13.0 | 0.00 | 0.00 | 0.00 | 28 | 1015.5 |
| 20260508184600 | 61 | 271 | 3.5 | 9.6 | 0.00 | 0.00 | 0.00 | 31 | 1015.4 |
| 20260508184059 | 61 | 156 | 3.5 | 8.7 | 0.00 | 0.00 | 0.00 | 30 | 1015.5 |
| 20260508183559 | 61 | 70 | 2.6 | 10.4 | 0.00 | 0.00 | 0.00 | 32 | 1015.5 |
| 20260508183059 | 61 | 164 | 4.3 | 10.4 | 0.00 | 0.00 | 0.00 | 33 | 1015.5 |
| 20260508182558 | 61 | 172 | 2.6 | 6.1 | 0.00 | 0.00 | 0.00 | 33 | 1015.5 |
| 20260508182058 | 61 | 131 | 3.5 | 9.6 | 0.00 | 0.00 | 0.00 | 31 | 1015.6 |
| 20260508181609 | 61 | 197 | 4.3 | 9.6 | 0.00 | 0.00 | 0.00 | 32 | 1015.5 |
| 20260508181058 | 61 | 203 | 3.5 | 10.4 | 0.00 | 0.00 | 0.00 | 33 | 1015.6 |
| 20260508180558 | 61 | 190 | 4.3 | 10.4 | 0.00 | 0.00 | 0.00 | 32 | 1015.6 |
| 20260508180107 | 61 | 163 | 2.6 | 9.6 | 0.00 | 0.00 | 0.00 | 31 | 1015.7 |
| 20260508175558 | 61 | 174 | 3.5 | 9.6 | 0.00 | 0.00 | 0.00 | 32 | 1015.9 |
| 20260508175057 | 61 | 165 | 3.5 | 10.4 | 0.00 | 0.00 | 0.00 | 33 | 1015.9 |
| 20260508174614 | 60 | 163 | 1.7 | 7.0 | 0.00 | 0.00 | 0.00 | 33 | 1016.1 |
| 20260508174058 | 60 | 149 | 3.5 | 9.6 | 0.00 | 0.00 | 0.00 | 32 | 1016.3 |
| 20260508173557 | 61 | 155 | 1.7 | 7.8 | 0.00 | 0.00 | 0.00 | 33 | 1016.3 |
| 20260508173100 | 61 | 161 | 2.6 | 7.8 | 0.00 | 0.00 | 0.00 | 34 | 1016.3 |
| 20260508172555 | 60 | 204 | 3.5 | 7.8 | 0.00 | 0.00 | 0.00 | 33 | 1016.4 |
| 20260508172055 | 60 | 153 | 4.3 | 7.8 | 0.00 | 0.00 | 0.00 | 34 | 1016.3 |
| 20260508171555 | 60 | 148 | 1.7 | 7.8 | 0.00 | 0.00 | 0.00 | 33 | 1016.4 |
| 20260508171059 | 61 | 144 | 3.5 | 7.8 | 0.00 | 0.00 | 0.00 | 32 | 1016.5 |
| 20260508170555 | 61 | 178 | 1.7 | 6.1 | 0.00 | 0.00 | 0.00 | 32 | 1016.6 |
| 20260508170058 | 60 | 231 | 0.0 | 6.1 | 0.00 | 0.00 | 0.00 | 34 | 1016.7 |
| 20260508165553 | 61 | 134 | 2.6 | 8.7 | 0.00 | 0.00 | 0.00 | 33 | 1016.7 |
| 20260508165053 | 60 | 154 | 0.9 | 8.7 | 0.00 | 0.00 | 0.00 | 35 | 1016.7 |
| 20260508164554 | 60 | 209 | 3.5 | 8.7 | 0.00 | 0.00 | 0.00 | 33 | 1016.7 |
| 20260508164055 | 60 | 161 | 0.9 | 6.1 | 0.00 | 0.00 | 0.00 | 36 | 1016.7 |
| 20260508163553 | 60 | 180 | 4.3 | 8.7 | 0.00 | 0.00 | 0.00 | 34 | 1016.7 |
| 20260508163051 | 60 | 181 | 4.3 | 8.7 | 0.00 | 0.00 | 0.00 | 35 | 1016.8 |
| 20260508162551 | 59 | 217 | 0.9 | 7.0 | 0.00 | 0.00 | 0.00 | 36 | 1016.9 |
| 20260508162051 | 60 | 140 | 2.6 | 7.8 | 0.00 | 0.00 | 0.00 | 35 | 1017.1 |
| 20260508161550 | 60 | 117 | 3.5 | 8.7 | 0.00 | 0.00 | 0.00 | 34 | 1017.0 |
| 20260508161050 | 59 | 103 | 3.5 | 8.7 | 0.00 | 0.00 | 0.00 | 36 | 1017.1 |
| 20260508160553 | 59 | 131 | 0.9 | 7.0 | 0.00 | 0.00 | 0.00 | 39 | 1017.1 |
| 20260508160049 | 59 | 141 | 1.7 | 7.0 | 0.00 | 0.00 | 0.00 | 39 | 1017.2 |
| 20260508155549 | 59 | 134 | 2.6 | 7.8 | 0.00 | 0.00 | 0.00 | 39 | 1017.3 |
| 20260508155049 | 60 | 156 | 1.7 | 7.8 | 0.00 | 0.00 | 0.00 | 39 | 1017.3 |
| 20260508154549 | 60 | 176 | 0.9 | 7.0 | 0.00 | 0.00 | 0.00 | 38 | 1017.4 |
| 20260508154047 | 60 | 188 | 2.6 | 7.0 | 0.00 | 0.00 | 0.00 | 39 | 1017.4 |
| 20260508153546 | 59 | 200 | 0.9 | 5.2 | 0.00 | 0.00 | 0.00 | 40 | 1017.4 |
| 20260508153046 | 59 | 136 | 0.9 | 5.2 | 0.00 | 0.00 | 0.00 | 42 | 1017.4 |
| 20260508152549 | 59 | 218 | 1.7 | 5.2 | 0.00 | 0.00 | 0.00 | 39 | 1017.4 |
| 20260508152044 | 58 | 177 | 1.7 | 5.2 | 0.00 | 0.00 | 0.00 | 43 | 1017.5 |
| 20260508151545 | 58 | 162 | 1.7 | 4.3 | 0.00 | 0.00 | 0.00 | 40 | 1017.6 |
| 20260508151045 | 58 | 167 | 2.6 | 4.3 | 0.00 | 0.00 | 0.00 | 39 | 1017.6 |
| 20260508150543 | 58 | 155 | 0.9 | 3.5 | 0.00 | 0.00 | 0.00 | 41 | 1017.6 |
| 20260508150042 | 58 | 142 | 0.9 | 3.5 | 0.00 | 0.00 | 0.00 | 41 | 1017.5 |
| 20260508145541 | 57 | 118 | 0.9 | 3.5 | 0.00 | 0.00 | 0.00 | 41 | 1017.5 |
| 20260508145040 | 56 | 240 | 0.0 | 5.2 | 0.00 | 0.00 | 0.00 | 46 | 1017.5 |
| 20260508144539 | 57 | 131 | 1.7 | 5.2 | 0.00 | 0.00 | 0.00 | 43 | 1017.5 |
| 20260508144040 | 55 | 223 | 0.0 | 5.2 | 0.00 | 0.00 | 0.00 | 45 | 1017.6 |
| 20260508143539 | 56 | 228 | 0.0 | 4.3 | 0.00 | 0.00 | 0.00 | 43 | 1017.6 |
| 20260508143040 | 56 | 245 | 0.9 | 2.6 | 0.00 | 0.00 | 0.00 | 45 | 1017.6 |
| 20260508142538 | 55 | 153 | 0.9 | 4.3 | 0.00 | 0.00 | 0.00 | 45 | 1017.6 |
| 20260508142038 | 56 | 76 | 0.9 | 5.2 | 0.00 | 0.00 | 0.00 | 44 | 1017.5 |
| 20260508141546 | 56 | 151 | 0.0 | 5.2 | 0.00 | 0.00 | 0.00 | 45 | 1017.5 |
| 20260508141038 | 57 | 142 | 1.7 | 4.3 | 0.00 | 0.00 | 0.00 | 42 | 1017.6 |
| 20260508140538 | 56 | 11 | 0.0 | 4.3 | 0.00 | 0.00 | 0.00 | 42 | 1017.5 |
| 20260508140039 | 57 | 264 | 0.0 | 4.3 | 0.00 | 0.00 | 0.00 | 43 | 1017.5 |
| 20260508135536 | 56 | 162 | 0.0 | 2.6 | 0.00 | 0.00 | 0.00 | 44 | 1017.5 |
| 20260508135035 | 56 | 139 | 0.9 | 2.6 | 0.00 | 0.00 | 0.00 | 43 | 1017.5 |
| 20260508134539 | 56 | 144 | 0.0 | 2.6 | 0.00 | 0.00 | 0.00 | 43 | 1017.4 |
| 20260508134033 | 56 | 179 | 0.9 | 2.6 | 0.00 | 0.00 | 0.00 | 43 | 1017.4 |
| 20260508133536 | 56 | 153 | 0.0 | 3.5 | 0.00 | 0.00 | 0.00 | 46 | 1017.2 |
| 20260508133032 | 56 | 205 | 0.0 | 3.5 | 0.00 | 0.00 | 0.00 | 45 | 1017.2 |
| 20260508132537 | 55 | 141 | 0.0 | 3.5 | 0.00 | 0.00 | 0.00 | 45 | 1017.2 |
| 20260508132033 | 55 | 124 | 0.9 | 3.5 | 0.00 | 0.00 | 0.00 | 45 | 1017.2 |
| 20260508131530 | 55 | 165 | 0.0 | 1.7 | 0.00 | 0.00 | 0.00 | 46 | 1017.0 |
| 20260508131030 | 55 | 141 | 0.9 | 1.7 | 0.00 | 0.00 | 0.00 | 43 | 1017.1 |
| 20260508130528 | 55 | 133 | 0.0 | 1.7 | 0.00 | 0.00 | 0.00 | 42 | 1017.0 |
| 20260508130029 | 55 | 176 | 0.0 | 1.7 | 0.00 | 0.00 | 0.00 | 44 | 1017.0 |
| 20260508125529 | 54 | 127 | 0.0 | 1.7 | 0.00 | 0.00 | 0.00 | 43 | 1016.9 |
| 20260508125027 | 55 | 149 | 0.0 | 0.9 | 0.00 | 0.00 | 0.00 | 45 | 1017.1 |
| 20260508124525 | 55 | 149 | 0.0 | 0.0 | 0.00 | 0.00 | 0.00 | 48 | 1016.8 |
| 20260508124024 | 54 | 149 | 0.0 | 0.0 | 0.00 | 0.00 | 0.00 | 51 | 1016.8 |
| 20260508123524 | 52 | 149 | 0.0 | 0.0 | 0.00 | 0.00 | 0.00 | 56 | 1016.8 |
| 20260508123022 | 51 | 149 | 0.0 | 0.0 | 0.00 | 0.00 | 0.00 | 58 | 1016.8 |
| 20260508122520 | 50 | 149 | 0.0 | 0.9 | 0.00 | 0.00 | 0.00 | 61 | 1016.8 |
| 20260508122018 | 48 | 149 | 0.0 | 0.9 | 0.00 | 0.00 | 0.00 | 63 | 1016.8 |
| 20260508121526 | 47 | 149 | 0.0 | 0.9 | 0.00 | 0.00 | 0.00 | 65 | 1016.7 |
| 20260508121018 | 45 | 161 | 0.0 | 0.9 | 0.00 | 0.00 | 0.00 | 68 | 1016.6 |
| 20260508120517 | 44 | 243 | 0.0 | 0.9 | 0.00 | 0.00 | 0.00 | 69 | 1016.5 |
| 20260508120017 | 43 | 144 | 0.0 | 0.9 | 0.00 | 0.00 | 0.00 | 73 | 1016.5 |
| 20260508115518 | 43 | 144 | 0.0 | 0.9 | 0.00 | 0.00 | 0.00 | 71 | 1016.4 |
| 20260508115015 | 41 | 124 | 0.0 | 0.9 | 0.00 | 0.00 | 0.00 | 75 | 1016.2 |
| 20260508114515 | 40 | 124 | 0.0 | 0.9 | 0.00 | 0.00 | 0.00 | 77 | 1016.1 |
| 20260508114018 | 39 | 110 | 0.0 | 0.9 | 0.00 | 0.00 | 0.00 | 79 | 1016.0 |
| 20260508113514 | 39 | 129 | 0.0 | 0.9 | 0.00 | 0.00 | 0.00 | 79 | 1016.0 |
| 20260508113016 | 39 | 131 | 0.0 | 1.7 | 0.00 | 0.00 | 0.00 | 79 | 1016.0 |
| 20260508112515 | 38 | 133 | 0.0 | 1.7 | 0.00 | 0.00 | 0.00 | 80 | 1015.8 |
| 20260508112011 | 38 | 113 | 0.0 | 0.9 | 0.00 | 0.00 | 0.00 | 81 | 1015.7 |
| 20260508111510 | 38 | 113 | 0.0 | 0.9 | 0.00 | 0.00 | 0.00 | 80 | 1015.7 |
| 20260508111009 | 38 | 142 | 0.0 | 0.9 | 0.00 | 0.00 | 0.00 | 78 | 1015.6 |
| 20260508110508 | 39 | 142 | 0.0 | 0.9 | 0.00 | 0.00 | 0.00 | 77 | 1015.5 |
| 20260508110014 | 39 | 142 | 0.0 | 1.7 | 0.00 | 0.00 | 0.00 | 77 | 1015.6 |
| 20260508105506 | 40 | 141 | 0.0 | 1.7 | 0.00 | 0.03 | 0.00 | 75 | 1015.5 |